QPF
0.01 0.02 0.02 0.03 0.05 0.05 0.05 0.03 0.04 0.03 0.01 0.01 0.01 0.01 0.01 0.01 0.02 0.04 0.08 0.08 0.07 0.09 0.07 0.07 0.12 0.21 0.17 0.12 0.11 0.12 0.13 0.10 0.08 0.07 0.05 0.04 0.03 0.03 0.03 0.03 0.03 0.03 0.03
0.01 0.01 0.02 0.02 0.04 0.03 0.03 0.02 0.02 0.02 0.02 0.01 0.01 0.01 0.01 0.01 0.01 0.02 0.05 0.08 0.08 0.07 0.07 0.08 0.13 0.17 0.15 0.13 0.14 0.14 0.13 0.11 0.10 0.07 0.05 0.03 0.02 0.02 0.02 0.04 0.03 0.04 0.06
0.00 0.01 0.01 0.01 0.02 0.02 0.01 0.01 0.01 0.02 0.02 0.02 0.02 0.02 0.02 0.01 0.01 0.01 0.04 0.06 0.07 0.08 0.07 0.07 0.09 0.12 0.13 0.13 0.14 0.14 0.13 0.11 0.09 0.07 0.05 0.03 0.03 0.03 0.03 0.03 0.03 0.05 0.07
0.00 0.01 0.01 0.01 0.01 0.01 0.01 0.01 0.02 0.03 0.03 0.03 0.04 0.03 0.02 0.01 0.00 0.01 0.02 0.03 0.05 0.05 0.06 0.06 0.06 0.08 0.12 0.13 0.13 0.13 0.12 0.11 0.10 0.09 0.07 0.06 0.05 0.05 0.04 0.04 0.03 0.04 0.05
0.01 0.01 0.01 0.01 0.01 0.01 0.01 0.01 0.03 0.04 0.03 0.03 0.03 0.02 0.02 0.02 0.02 0.01 0.02 0.02 0.03 0.04 0.05 0.06 0.05 0.06 0.10 0.12 0.12 0.12 0.11 0.09 0.07 0.06 0.06 0.05 0.06 0.05 0.06 0.05 0.04 0.03 0.04
0.01 0.02 0.01 0.01 0.01 0.01 0.01 0.01 0.02 0.04 0.04 0.03 0.02 0.02 0.02 0.02 0.03 0.02 0.02 0.03 0.04 0.04 0.04 0.06 0.08 0.08 0.09 0.12 0.12 0.10 0.07 0.05 0.05 0.04 0.03 0.03 0.04 0.07 0.09 0.06 0.04 0.03 0.04
0.01 0.01 0.01 0.01 0.01 0.01 0.01 0.01 0.01 0.02 0.03 0.02 0.03 0.03 0.02 0.02 0.02 0.03 0.04 0.04 0.05 0.05 0.05 0.06 0.07 0.06 0.07 0.09 0.09 0.07 0.07 0.06 0.06 0.04 0.03 0.03 0.03 0.06 0.09 0.08 0.05 0.04 0.05
0.01 0.01 0.01 0.01 0.01 0.01 0.01 0.01 0.01 0.02 0.02 0.03 0.05 0.05 0.03 0.03 0.02 0.02 0.04 0.04 0.05 0.06 0.06 0.08 0.07 0.06 0.06 0.08 0.08 0.09 0.08 0.06 0.04 0.03 0.03 0.04 0.04 0.05 0.07 0.08 0.07 0.05 0.05
0.01 0.00 0.00 0.01 0.01 0.03 0.04 0.02 0.02 0.03 0.03 0.03 0.04 0.05 0.06 0.06 0.04 0.03 0.03 0.03 0.05 0.06 0.07 0.09 0.08 0.06 0.05 0.06 0.06 0.04 0.03 0.03 0.03 0.02 0.03 0.05 0.06 0.06 0.05 0.06 0.06 0.07 0.05
0.01 0.01 0.01 0.01 0.02 0.02 0.03 0.02 0.02 0.03 0.04 0.04 0.04 0.04 0.03 0.05 0.05 0.05 0.05 0.04 0.04 0.05 0.07 0.06 0.05 0.04 0.03 0.05 0.04 0.02 0.01 0.01 0.04 0.04 0.03 0.04 0.07 0.07 0.06 0.06 0.06 0.08 0.06
0.02 0.01 0.01 0.01 0.02 0.02 0.03 0.03 0.03 0.03 0.04 0.05 0.05 0.04 0.02 0.03 0.04 0.05 0.06 0.06 0.05 0.06 0.05 0.05 0.04 0.04 0.03 0.03 0.03 0.02 0.01 0.01 0.02 0.04 0.04 0.05 0.06 0.07 0.08 0.08 0.07 0.08 0.07
0.02 0.01 0.01 0.01 0.01 0.01 0.02 0.02 0.03 0.03 0.03 0.04 0.04 0.03 0.03 0.04 0.04 0.04 0.06 0.05 0.05 0.05 0.04 0.04 0.03 0.03 0.03 0.03 0.03 0.02 0.01 0.01 0.01 0.02 0.04 0.05 0.05 0.05 0.06 0.08 0.08 0.07 0.06
0.02 0.02 0.02 0.02 0.01 0.01 0.01 0.01 0.02 0.03 0.02 0.02 0.03 0.03 0.02 0.02 0.03 0.04 0.05 0.04 0.03 0.03 0.02 0.02 0.02 0.02 0.01 0.02 0.01 0.01 0.00 0.00 0.01 0.02 0.05 0.06 0.05 0.04 0.05 0.06 0.06 0.07 0.06
0.02 0.01 0.02 0.02 0.02 0.02 0.02 0.02 0.02 0.02 0.02 0.02 0.02 0.03 0.02 0.02 0.02 0.02 0.03 0.03 0.02 0.03 0.03 0.02 0.02 0.01 0.01 0.01 0.01 0.01 0.00 0.00 0.00 0.01 0.02 0.05 0.07 0.07 0.05 0.04 0.04 0.05 0.05
0.01 0.01 0.01 0.01 0.02 0.02 0.03 0.03 0.03 0.02 0.02 0.02 0.02 0.03 0.03 0.03 0.02 0.02 0.02 0.03 0.02 0.02 0.03 0.02 0.02 0.01 0.02 0.02 0.01 0.01 0.00 0.00 0.00 0.00 0.01 0.02 0.05 0.09 0.06 0.04 0.03 0.04 0.04
0.01 0.01 0.01 0.01 0.01 0.01 0.02 0.03 0.03 0.02 0.01 0.02 0.02 0.03 0.02 0.02 0.02 0.02 0.01 0.02 0.03 0.03 0.02 0.01 0.01 0.01 0.01 0.02 0.02 0.01 0.01 0.01 0.01 0.01 0.00 0.01 0.03 0.04 0.04 0.05 0.04 0.03 0.03
0.01 0.01 0.01 0.01 0.01 0.01 0.01 0.02 0.02 0.01 0.01 0.02 0.01 0.01 0.02 0.02 0.02 0.02 0.01 0.02 0.02 0.02 0.02 0.02 0.02 0.01 0.01 0.02 0.03 0.02 0.01 0.01 0.02 0.01 0.01 0.01 0.01 0.02 0.01 0.02 0.03 0.03 0.03
0.01 0.01 0.01 0.02 0.01 0.01 0.01 0.01 0.02 0.02 0.01 0.01 0.02 0.01 0.01 0.01 0.02 0.01 0.01 0.01 0.01 0.01 0.01 0.02 0.02 0.01 0.01 0.02 0.02 0.02 0.01 0.01 0.01 0.01 0.01 0.01 0.01 0.00 0.01 0.01 0.01 0.01 0.03
0.01 0.01 0.01 0.01 0.01 0.01 0.01 0.01 0.01 0.01 0.00 0.00 0.01 0.01 0.00 0.00 0.01 0.01 0.00 0.01 0.00 0.00 0.00 0.01 0.01 0.01 0.01 0.01 0.01 0.01 0.01 0.02 0.01 0.01 0.01 0.01 0.01 0.01 0.01 0.00 0.00 0.00 0.03
0.02 0.02 0.02 0.01 0.01 0.02 0.01 0.00 0.00 0.01 0.00 0.00 0.00 0.01 0.00 0.00 0.00 0.00 0.00 0.00 0.01 0.01 0.01 0.01 0.01 0.01 0.01 0.01 0.01 0.02 0.01 0.02 0.02 0.02 0.02 0.02 0.02 0.01 0.01 0.01 0.00 0.00 0.02
0.02 0.02 0.03 0.02 0.02 0.01 0.01 0.00 0.00 0.00 0.00 0.00 0.00 0.00 0.00 0.00 0.00 0.01 0.01 0.01 0.01 0.01 0.01 0.01 0.03 0.03 0.03 0.03 0.02 0.02 0.02 0.02 0.02 0.03 0.05 0.05 0.04 0.03 0.01 0.01 0.01 0.00 0.01
0.02 0.03 0.03 0.02 0.01 0.00 0.01 0.01 0.00 0.00 0.00 0.00 0.00 0.00 0.00 0.00 0.00 0.00 0.01 0.01 0.01 0.01 0.02 0.02 0.03 0.04 0.04 0.04 0.03 0.03 0.02 0.02 0.02 0.02 0.04 0.07 0.08 0.06 0.02 0.02 0.01 0.01 0.01
0.03 0.04 0.03 0.02 0.01 0.01 0.02 0.01 0.00 0.00 0.00 0.00 0.00 0.00 0.00 0.01 0.01 0.00 0.00 0.00 0.01 0.01 0.03 0.03 0.02 0.02 0.02 0.02 0.02 0.02 0.02 0.02 0.02 0.02 0.03 0.05 0.06 0.06 0.04 0.03 0.02 0.02 0.02
0.02 0.03 0.03 0.03 0.02 0.02 0.02 0.01 0.01 0.01 0.01 0.01 0.01 0.01 0.01 0.01 0.00 0.00 0.01 0.01 0.01 0.01 0.02 0.03 0.03 0.02 0.02 0.01 0.01 0.02 0.02 0.03 0.02 0.02 0.02 0.03 0.05 0.07 0.05 0.05 0.05 0.05 0.05
0.02 0.02 0.02 0.02 0.01 0.02 0.02 0.01 0.01 0.01 0.01 0.01 0.01 0.01 0.01 0.01 0.01 0.01 0.01 0.01 0.01 0.01 0.01 0.02 0.02 0.02 0.03 0.02 0.01 0.02 0.02 0.02 0.02 0.02 0.01 0.02 0.05 0.08 0.07 0.04 0.04 0.05 0.05
0.01 0.01 0.01 0.01 0.01 0.01 0.02 0.01 0.01 0.01 0.01 0.01 0.01 0.01 0.01 0.01 0.02 0.02 0.02 0.01 0.01 0.02 0.01 0.01 0.01 0.01 0.01 0.02 0.02 0.01 0.02 0.02 0.02 0.03 0.02 0.02 0.04 0.08 0.08 0.06 0.06 0.05 0.04
MSLP
1014.18 1014.46 1014.68 1014.86 1015.01 1015.17 1015.38 1015.64 1015.95 1016.30 1016.66 1017.00 1017.30 1017.54 1017.72 1017.86 1017.98 1018.08 1018.18 1018.29 1018.40 1018.49 1018.56 1018.59 1018.58 1018.55 1018.50 1018.47 1018.45 1018.46 1018.50 1018.56 1018.64 1018.71 1018.76 1018.79 1018.79 1018.77 1018.72 1018.66 1018.60 1018.53 1018.46
1014.02 1014.34 1014.61 1014.85 1015.07 1015.29 1015.54 1015.83 1016.16 1016.51 1016.86 1017.19 1017.47 1017.70 1017.87 1018.00 1018.11 1018.22 1018.33 1018.46 1018.59 1018.72 1018.83 1018.91 1018.95 1018.96 1018.95 1018.92 1018.90 1018.89 1018.89 1018.92 1018.95 1018.98 1019.00 1019.00 1018.99 1018.95 1018.90 1018.83 1018.75 1018.67 1018.58
1013.91 1014.26 1014.59 1014.90 1015.19 1015.48 1015.79 1016.11 1016.46 1016.81 1017.15 1017.46 1017.72 1017.92 1018.07 1018.19 1018.28 1018.37 1018.47 1018.59 1018.73 1018.88 1019.02 1019.14 1019.23 1019.28 1019.31 1019.31 1019.29 1019.27 1019.25 1019.24 1019.23 1019.22 1019.20 1019.18 1019.15 1019.10 1019.04 1018.97 1018.89 1018.79 1018.69
1013.84 1014.23 1014.62 1015.00 1015.37 1015.73 1016.08 1016.44 1016.80 1017.15 1017.48 1017.76 1018.00 1018.18 1018.31 1018.40 1018.47 1018.54 1018.61 1018.71 1018.83 1018.97 1019.12 1019.26 1019.39 1019.49 1019.55 1019.59 1019.59 1019.58 1019.55 1019.50 1019.46 1019.41 1019.36 1019.31 1019.26 1019.21 1019.14 1019.07 1018.98 1018.88 1018.77
1013.81 1014.23 1014.67 1015.12 1015.55 1015.97 1016.38 1016.76 1017.13 1017.47 1017.78 1018.05 1018.27 1018.43 1018.55 1018.62 1018.67 1018.71 1018.75 1018.81 1018.90 1019.01 1019.15 1019.29 1019.44 1019.57 1019.67 1019.74 1019.77 1019.77 1019.74 1019.69 1019.63 1019.55 1019.48 1019.41 1019.33 1019.26 1019.19 1019.11 1019.02 1018.91 1018.78
1013.79 1014.23 1014.71 1015.20 1015.69 1016.15 1016.59 1016.99 1017.36 1017.70 1018.00 1018.26 1018.47 1018.63 1018.75 1018.82 1018.85 1018.87 1018.88 1018.90 1018.94 1019.02 1019.12 1019.24 1019.39 1019.53 1019.66 1019.76 1019.83 1019.85 1019.84 1019.80 1019.73 1019.65 1019.55 1019.46 1019.37 1019.28 1019.19 1019.09 1018.99 1018.86 1018.71
1013.75 1014.20 1014.69 1015.21 1015.72 1016.22 1016.67 1017.08 1017.45 1017.78 1018.08 1018.33 1018.55 1018.73 1018.87 1018.96 1019.00 1019.01 1019.00 1018.98 1018.98 1019.00 1019.05 1019.14 1019.26 1019.40 1019.54 1019.66 1019.76 1019.83 1019.84 1019.83 1019.77 1019.69 1019.59 1019.48 1019.37 1019.26 1019.15 1019.03 1018.90 1018.75 1018.58
1013.65 1014.09 1014.59 1015.12 1015.65 1016.15 1016.61 1017.02 1017.38 1017.71 1018.00 1018.27 1018.52 1018.73 1018.91 1019.04 1019.11 1019.14 1019.12 1019.07 1019.02 1018.98 1018.97 1019.01 1019.08 1019.19 1019.33 1019.47 1019.59 1019.69 1019.75 1019.77 1019.74 1019.68 1019.59 1019.48 1019.36 1019.23 1019.09 1018.95 1018.79 1018.61 1018.41
1013.48 1013.91 1014.40 1014.93 1015.46 1015.96 1016.42 1016.83 1017.19 1017.51 1017.81 1018.10 1018.38 1018.64 1018.87 1019.06 1019.18 1019.23 1019.22 1019.16 1019.07 1018.98 1018.90 1018.87 1018.88 1018.95 1019.06 1019.20 1019.34 1019.47 1019.56 1019.62 1019.63 1019.60 1019.54 1019.44 1019.31 1019.17 1019.01 1018.84 1018.65 1018.44 1018.21
1013.22 1013.65 1014.14 1014.67 1015.20 1015.70 1016.16 1016.56 1016.92 1017.24 1017.55 1017.87 1018.18 1018.49 1018.78 1019.02 1019.20 1019.29 1019.30 1019.24 1019.12 1018.98 1018.85 1018.74 1018.69 1018.70 1018.76 1018.88 1019.01 1019.16 1019.28 1019.38 1019.44 1019.45 1019.41 1019.33 1019.22 1019.08 1018.91 1018.72 1018.50 1018.27 1018.02
1012.89 1013.32 1013.83 1014.36 1014.90 1015.41 1015.87 1016.28 1016.64 1016.96 1017.28 1017.61 1017.95 1018.30 1018.64 1018.93 1019.16 1019.31 1019.35 1019.30 1019.17 1018.99 1018.80 1018.63 1018.51 1018.45 1018.46 1018.53 1018.65 1018.79 1018.93 1019.05 1019.14 1019.19 1019.19 1019.14 1019.04 1018.91 1018.75 1018.55 1018.33 1018.08 1017.82
1012.47 1012.94 1013.47 1014.03 1014.59 1015.12 1015.60 1016.02 1016.38 1016.71 1017.03 1017.36 1017.71 1018.08 1018.45 1018.78 1019.06 1019.25 1019.33 1019.30 1019.18 1018.99 1018.77 1018.55 1018.36 1018.23 1018.18 1018.19 1018.26 1018.38 1018.51 1018.64 1018.75 1018.82 1018.85 1018.82 1018.76 1018.64 1018.50 1018.31 1018.10 1017.87 1017.61
1011.98 1012.49 1013.06 1013.67 1014.27 1014.84 1015.34 1015.78 1016.16 1016.48 1016.80 1017.12 1017.46 1017.83 1018.20 1018.56 1018.87 1019.10 1019.23 1019.24 1019.15 1018.97 1018.74 1018.49 1018.25 1018.07 1017.94 1017.89 1017.90 1017.97 1018.06 1018.17 1018.27 1018.35 1018.39 1018.39 1018.34 1018.25 1018.13 1017.98 1017.80 1017.59 1017.36
1011.41 1011.97 1012.60 1013.26 1013.91 1014.53 1015.08 1015.54 1015.93 1016.26 1016.56 1016.86 1017.18 1017.53 1017.89 1018.26 1018.59 1018.85 1019.03 1019.09 1019.05 1018.91 1018.70 1018.45 1018.19 1017.96 1017.78 1017.66 1017.60 1017.60 1017.63 1017.69 1017.76 1017.81 1017.84 1017.83 1017.80 1017.73 1017.64 1017.53 1017.39 1017.23 1017.04
1010.79 1011.40 1012.08 1012.79 1013.51 1014.17 1014.77 1015.27 1015.67 1016.00 1016.29 1016.56 1016.84 1017.16 1017.50 1017.86 1018.21 1018.50 1018.73 1018.86 1018.88 1018.81 1018.65 1018.43 1018.18 1017.93 1017.71 1017.53 1017.40 1017.31 1017.27 1017.25 1017.25 1017.25 1017.23 1017.21 1017.17 1017.11 1017.04 1016.96 1016.87 1016.76 1016.63
1010.13 1010.78 1011.50 1012.26 1013.02 1013.74 1014.38 1014.91 1015.34 1015.67 1015.95 1016.19 1016.45 1016.73 1017.04 1017.39 1017.74 1018.08 1018.36 1018.56 1018.67 1018.67 1018.59 1018.43 1018.21 1017.97 1017.73 1017.50 1017.30 1017.14 1017.00 1016.90 1016.80 1016.72 1016.65 1016.57 1016.50 1016.43 1016.37 1016.32 1016.26 1016.20 1016.12
1009.46 1010.13 1010.88 1011.67 1012.47 1013.23 1013.90 1014.47 1014.91 1015.26 1015.53 1015.76 1016.00 1016.25 1016.55 1016.89 1017.25 1017.61 1017.95 1018.22 1018.41 1018.51 1018.51 1018.42 1018.26 1018.05 1017.81 1017.56 1017.31 1017.08 1016.86 1016.66 1016.47 1016.29 1016.13 1015.98 1015.86 1015.75 1015.67 1015.62 1015.59 1015.56 1015.52
1008.83 1009.50 1010.25 1011.06 1011.87 1012.65 1013.35 1013.94 1014.42 1014.79 1015.07 1015.31 1015.53 1015.78 1016.07 1016.40 1016.78 1017.17 1017.54 1017.88 1018.15 1018.33 1018.41 1018.40 1018.31 1018.14 1017.92 1017.67 1017.39 1017.11 1016.82 1016.53 1016.25 1015.98 1015.72 1015.49 1015.29 1015.12 1015.01 1014.94 1014.90 1014.89 1014.88
1008.26 1008.92 1009.67 1010.46 1011.27 1012.06 1012.77 1013.38 1013.89 1014.28 1014.60 1014.86 1015.10 1015.36 1015.66 1016.00 1016.38 1016.79 1017.20 1017.58 1017.90 1018.14 1018.29 1018.35 1018.32 1018.20 1018.02 1017.78 1017.49 1017.18 1016.84 1016.49 1016.13 1015.78 1015.43 1015.11 1014.83 1014.59 1014.41 1014.30 1014.24 1014.21 1014.21
1007.77 1008.42 1009.15 1009.92 1010.72 1011.49 1012.20 1012.83 1013.36 1013.80 1014.16 1014.47 1014.75 1015.04 1015.36 1015.72 1016.11 1016.53 1016.95 1017.34 1017.68 1017.95 1018.15 1018.25 1018.26 1018.19 1018.04 1017.83 1017.56 1017.24 1016.88 1016.50 1016.08 1015.66 1015.24 1014.84 1014.47 1014.16 1013.91 1013.73 1013.62 1013.56 1013.54
1007.37 1008.02 1008.72 1009.47 1010.23 1010.98 1011.69 1012.33 1012.89 1013.37 1013.79 1014.16 1014.51 1014.85 1015.21 1015.59 1015.99 1016.40 1016.80 1017.18 1017.51 1017.78 1017.97 1018.09 1018.13 1018.08 1017.97 1017.79 1017.54 1017.24 1016.89 1016.49 1016.05 1015.59 1015.11 1014.64 1014.20 1013.81 1013.49 1013.23 1013.06 1012.96 1012.90
1007.06 1007.71 1008.40 1009.11 1009.84 1010.56 1011.25 1011.89 1012.48 1013.02 1013.50 1013.95 1014.37 1014.78 1015.18 1015.59 1015.99 1016.39 1016.76 1017.10 1017.39 1017.62 1017.79 1017.89 1017.92 1017.89 1017.79 1017.64 1017.43 1017.15 1016.82 1016.43 1015.99 1015.51 1015.00 1014.49 1013.99 1013.53 1013.13 1012.81 1012.57 1012.40 1012.30
1006.84 1007.50 1008.17 1008.85 1009.54 1010.22 1010.89 1011.54 1012.15 1012.74 1013.29 1013.81 1014.32 1014.79 1015.26 1015.69 1016.10 1016.48 1016.81 1017.09 1017.31 1017.48 1017.60 1017.66 1017.67 1017.63 1017.54 1017.41 1017.22 1016.97 1016.67 1016.31 1015.88 1015.40 1014.88 1014.34 1013.80 1013.28 1012.82 1012.43 1012.12 1011.90 1011.74
1006.72 1007.38 1008.03 1008.68 1009.33 1009.97 1010.62 1011.26 1011.89 1012.52 1013.14 1013.74 1014.32 1014.87 1015.39 1015.86 1016.27 1016.62 1016.91 1017.13 1017.28 1017.38 1017.43 1017.44 1017.41 1017.35 1017.26 1017.13 1016.96 1016.74 1016.46 1016.11 1015.71 1015.23 1014.71 1014.16 1013.59 1013.05 1012.54 1012.09 1011.72 1011.43 1011.23
1006.72 1007.38 1008.01 1008.62 1009.22 1009.82 1010.43 1011.06 1011.70 1012.36 1013.03 1013.70 1014.35 1014.96 1015.53 1016.02 1016.44 1016.77 1017.02 1017.18 1017.28 1017.31 1017.30 1017.26 1017.19 1017.10 1016.99 1016.86 1016.69 1016.48 1016.22 1015.89 1015.49 1015.03 1014.52 1013.96 1013.38 1012.81 1012.27 1011.78 1011.36 1011.03 1010.77
1006.87 1007.51 1008.11 1008.67 1009.22 1009.77 1010.34 1010.95 1011.59 1012.27 1012.98 1013.69 1014.39 1015.05 1015.64 1016.16 1016.58 1016.90 1017.11 1017.23 1017.28 1017.27 1017.21 1017.12 1017.02 1016.91 1016.78 1016.64 1016.46 1016.25 1015.99 1015.67 1015.27 1014.82 1014.31 1013.75 1013.17 1012.59 1012.03 1011.52 1011.06 1010.69 1010.39
Thickness
5724 5723 5722 5721 5721 5721 5721 5721 5721 5721 5722 5722 5722 5722 5722 5722 5722 5721 5721 5722 5722 5723 5724 5725 5725 5726 5725 5726 5726 5726 5725 5724 5723 5723 5723 5722 5722 5722 5722 5722 5722 5723 5723
5720 5719 5717 5717 5716 5716 5716 5716 5716 5715 5715 5716 5716 5716 5716 5717 5717 5716 5716 5716 5716 5717 5718 5719 5720 5721 5721 5721 5721 5721 5720 5720 5719 5719 5718 5718 5718 5718 5718 5717 5717 5718 5717
5716 5715 5713 5712 5711 5711 5711 5711 5710 5710 5709 5709 5709 5710 5710 5711 5711 5711 5711 5711 5710 5711 5712 5713 5714 5714 5715 5715 5716 5715 5715 5715 5715 5714 5714 5714 5713 5713 5713 5713 5713 5713 5713
5712 5710 5708 5707 5706 5706 5705 5704 5703 5702 5701 5701 5701 5703 5704 5704 5705 5706 5706 5706 5706 5705 5706 5706 5707 5708 5709 5710 5710 5710 5710 5709 5709 5709 5709 5709 5709 5709 5709 5709 5708 5708 5708
5706 5705 5703 5702 5702 5700 5699 5698 5696 5695 5693 5694 5694 5696 5697 5698 5699 5700 5700 5700 5701 5701 5700 5700 5701 5702 5703 5703 5704 5704 5704 5704 5704 5704 5704 5705 5705 5706 5706 5705 5704 5704 5704
5701 5700 5699 5698 5697 5694 5692 5691 5690 5689 5688 5688 5690 5690 5691 5692 5693 5693 5694 5695 5695 5695 5695 5695 5696 5696 5696 5697 5698 5698 5698 5698 5698 5699 5699 5700 5700 5701 5701 5701 5700 5700 5700
5696 5695 5694 5692 5691 5688 5686 5685 5684 5682 5681 5683 5681 5680 5683 5686 5686 5687 5688 5688 5689 5689 5690 5690 5690 5690 5690 5691 5691 5691 5692 5692 5693 5693 5694 5694 5695 5695 5696 5696 5696 5695 5695
5692 5691 5689 5687 5685 5683 5681 5679 5678 5675 5675 5676 5674 5671 5669 5672 5676 5681 5681 5681 5682 5683 5683 5684 5685 5685 5685 5684 5684 5685 5685 5686 5687 5687 5688 5689 5689 5690 5690 5690 5690 5690 5690
5687 5686 5685 5683 5681 5678 5674 5674 5673 5670 5667 5669 5670 5667 5662 5660 5664 5670 5673 5674 5675 5675 5676 5677 5678 5678 5679 5679 5678 5678 5679 5679 5680 5681 5682 5683 5683 5684 5684 5685 5685 5684 5684
5683 5682 5680 5679 5676 5674 5671 5669 5668 5666 5664 5662 5664 5665 5665 5663 5658 5657 5662 5666 5668 5668 5669 5670 5670 5671 5672 5671 5671 5671 5672 5673 5674 5675 5675 5676 5677 5678 5679 5679 5679 5679 5679
5680 5678 5676 5675 5672 5670 5667 5665 5663 5662 5660 5658 5657 5658 5658 5659 5659 5654 5651 5654 5658 5660 5662 5663 5664 5664 5664 5664 5664 5664 5665 5666 5667 5668 5669 5670 5671 5672 5673 5673 5673 5673 5673
5676 5675 5673 5671 5668 5666 5664 5662 5660 5658 5656 5655 5654 5653 5652 5650 5650 5649 5646 5646 5648 5651 5655 5657 5657 5658 5657 5658 5658 5658 5658 5659 5660 5661 5662 5663 5664 5665 5666 5667 5667 5667 5667
5672 5671 5669 5667 5665 5663 5661 5659 5657 5654 5652 5650 5649 5649 5649 5648 5648 5646 5643 5642 5642 5645 5648 5650 5651 5652 5652 5651 5651 5651 5652 5653 5654 5655 5655 5656 5657 5658 5659 5660 5660 5661 5661
5670 5669 5666 5664 5662 5660 5658 5655 5652 5650 5649 5647 5646 5645 5644 5644 5644 5642 5639 5637 5634 5636 5638 5641 5644 5646 5645 5645 5645 5645 5645 5646 5647 5648 5648 5649 5650 5651 5652 5652 5653 5653 5654
5668 5666 5664 5661 5658 5656 5653 5651 5648 5646 5645 5643 5642 5641 5639 5639 5639 5639 5637 5635 5631 5627 5629 5634 5636 5638 5639 5639 5639 5639 5640 5640 5640 5641 5642 5642 5643 5643 5644 5645 5645 5646 5646
5665 5663 5660 5657 5654 5652 5649 5647 5644 5643 5641 5639 5638 5637 5635 5634 5634 5633 5633 5632 5630 5626 5624 5628 5629 5631 5632 5632 5632 5633 5633 5634 5634 5635 5635 5636 5636 5636 5637 5637 5638 5639 5640
5661 5659 5656 5653 5651 5648 5645 5642 5640 5639 5637 5635 5634 5632 5631 5630 5629 5628 5627 5626 5624 5622 5619 5621 5623 5624 5625 5625 5625 5625 5626 5627 5628 5628 5628 5628 5628 5629 5629 5630 5631 5631 5632
5658 5656 5653 5650 5647 5644 5641 5638 5635 5634 5632 5631 5629 5627 5626 5625 5623 5622 5620 5619 5618 5618 5615 5613 5615 5616 5617 5618 5618 5619 5620 5620 5621 5622 5622 5622 5622 5622 5622 5622 5623 5624 5625
5653 5651 5648 5645 5642 5640 5637 5635 5632 5630 5628 5626 5624 5622 5621 5619 5616 5615 5614 5613 5613 5613 5611 5609 5609 5610 5611 5612 5612 5612 5613 5613 5614 5614 5614 5615 5615 5615 5615 5616 5616 5617 5618
5648 5646 5644 5641 5638 5636 5633 5631 5628 5625 5623 5622 5620 5618 5615 5613 5611 5610 5609 5607 5607 5605 5605 5604 5603 5602 5603 5604 5604 5603 5604 5605 5606 5607 5606 5607 5607 5607 5608 5608 5609 5610 5611
5644 5642 5639 5636 5633 5631 5628 5625 5623 5621 5618 5616 5614 5612 5610 5608 5607 5605 5604 5602 5600 5598 5597 5596 5595 5595 5594 5594 5594 5595 5594 5596 5598 5598 5597 5598 5598 5599 5600 5601 5602 5603 5604
5639 5637 5633 5630 5627 5625 5623 5621 5617 5615 5612 5610 5607 5605 5604 5602 5601 5600 5599 5597 5595 5593 5590 5589 5588 5586 5587 5587 5587 5587 5585 5585 5586 5590 5588 5589 5590 5591 5592 5593 5595 5596 5597
5633 5630 5627 5624 5621 5618 5616 5614 5611 5608 5605 5603 5601 5599 5598 5597 5595 5593 5592 5591 5589 5588 5586 5584 5581 5580 5580 5581 5580 5579 5577 5576 5577 5580 5580 5580 5583 5583 5585 5586 5587 5589 5589
5626 5623 5620 5617 5614 5612 5610 5607 5604 5601 5598 5596 5594 5593 5590 5589 5588 5586 5584 5583 5581 5580 5580 5578 5577 5576 5576 5575 5573 5572 5571 5570 5571 5573 5573 5571 5574 5576 5578 5579 5580 5581 5582
5619 5616 5613 5610 5607 5604 5602 5600 5597 5593 5590 5588 5587 5586 5584 5581 5581 5579 5577 5575 5573 5573 5573 5572 5571 5570 5569 5567 5566 5563 5561 5560 5560 5562 5563 5563 5564 5567 5570 5571 5572 5573 5574
5612 5610 5606 5604 5601 5597 5595 5592 5589 5586 5583 5581 5579 5578 5576 5574 5572 5570 5567 5565 5564 5563 5563 5563 5562 5561 5560 5558 5557 5555 5553 5551 5550 5551 5554 5554 5555 5556 5558 5562 5564 5564 5565